Content
SEND FEEDBACK

Canada Flag

QUEBEC CITY AIRPORT, QUEBEC


Home > North America > Canada > Quebec
Elevation: 74 meters     Latitude: 46 48N     Longitude: 71 23W

WEATHER
 
SELECT A DAY
Number of Records: 215,370;   Date Range: 6/30/96 - 3/22/16
 
SHARE

PRINT THIS DATA

[ ← Previous Day ]
WEATHER ALMANAC - 4 FEBRUARY, 2013
[ Next Day → ]
[ °F ]   °C
Weather ElementAverageHighLow
Temperature-10.9 °C-7 °C (12:00 pm)-18 °C (11:00 pm)
Dewpoint-16.1 °C-11 °C (5:00 pm)-27 °C (11:00 pm)
Humidity67.7 %88 % (7:00 am)42 % (10:00 pm)
Wind Speed22.2 km/h44.4 km/h (5:12 pm)
Wind Gust51.8 km/h (6:00 pm)
Weather ElementAverage
Visibility20.6 km
Wind DirectionNNW (328.1 °)

Weather ElementTotal
Precipitation---
Heating Degree Days30.8 (Base 18.3)
Averaged from 39 records on 4 February, 2013
WEATHER CONDITIONS BREAKOUT
WIND DIRECTION BREAKOUT
WEATHER BY HOUR - 4 FEBRUARY, 2013
[ °F ]   °C
Local TimeTemperatureDewpointHumidityBarometerVisibilityWind DirectionWind SpeedGust SpeedPrecipitationEventsConditions
1:00 AM-10.6 °C-12.8 °C76 %1007.8 hPaNE (50°)3.7 km/h
1:00 AM-10 °C-14 °C73 %1007.8 hPa24.1 kmENE (60°)7.4 km/hMostly Cloudy
2:00 AM-11 °C-15 °C73 %1007.5 hPa24.1 kmNorth (10°)5.6 km/hMostly Cloudy
3:00 AM-11 °C-15 °C73 %1007.1 hPa24.1 kmNorth (360°)3.7 km/hOvercast
4:00 AM-12.2 °C-14.4 °C77 %1006.8 hPaNNW (340°)1.9 km/h
4:00 AM-12 °C-15 °C79 %1006.8 hPa24.1 kmCalmOvercast
6:00 AM-12 °C-15 °C79 %1006.1 hPa12.9 kmWest (270°)3.7 km/hSnowLight Snow
7:00 AM-12.2 °C-13.3 °C88 %1006.1 hPaNW (310°)1.9 km/h
7:00 AM-12 °C-15 °C79 %1006.1 hPa16.1 kmWest (280°)3.7 km/hSnowLight Snow
7:39 AM-13 °C-17.8 °C16.1 kmWSW (240°)5.6 km/hScattered Clouds
8:00 AM-13 °C-15 °C85 %1005.8 hPa16.1 kmWest (270°)3.7 km/hMostly Cloudy
9:00 AM-10 °C-14 °C73 %1005.4 hPa19.3 kmWSW (240°)14.8 km/hScattered Clouds
10:00 AM-8.9 °C-13.9 °C54 %1004.4 hPaWSW (250°)9.3 km/h
10:00 AM-9 °C-14 °C68 %1004.7 hPa24.1 kmSW (220°)20.4 km/hPartly Cloudy
11:00 AM-8 °C-14 °C63 %1004.1 hPa40.2 kmWSW (240°)24.1 km/hPartly Cloudy
12:00 PM-7 °C-14 °C58 %1003 hPa40.2 kmSW (230°)29.6 km/hScattered Clouds
1:00 PM-7.2 °C-13.3 °C49 %1002.4 hPaWSW (240°)18.5 km/h
1:00 PM-7 °C-13 °C63 %1002.4 hPa40.2 kmSW (230°)35.2 km/hMostly Cloudy
2:00 PM-7 °C-14 °C58 %1002.4 hPa32.2 kmWSW (240°)29.6 km/hMostly Cloudy
3:00 PM-8 °C-14 °C63 %1002.7 hPa40.2 kmSW (230°)31.5 km/hMostly Cloudy
4:00 PM-8.9 °C-11.7 °C74 %1002.7 hPaWSW (240°)18.5 km/h
4:00 PM-9 °C-13 °C73 %1002.7 hPa16.1 kmWSW (240°)37 km/hSnowLight Snow Showers
4:31 PM-9 °C-17.8 °C1.6 kmSW (220°)31.5 km/h40.7 km/hSnowLight Snow Showers
4:48 PM-9 °C-17.8 °C0 km13.8 (2013°)31.5 km/h0 mmLight Snow250
5:00 PM-9 °C-11 °C86 %1002.7 hPa4.8 kmWSW (250°)29.6 km/hSnowLight Snow Showers
5:06 PM-9 °C-17.8 °C2.4 kmWSW (250°)27.8 km/h37 km/hSnowLight Snow Showers
5:12 PM-9 °C-17.8 °C0 km19.6 (2013°)44.4 km/h0 mmSnow Showers260
5:19 PM-10 °C-17.8 °C8 kmWest (270°)35.2 km/h48.1 km/hSnowLight Snow Showers
5:41 PM-10 °C-17.8 °C19.3 kmWest (270°)37 km/h46.3 km/hMostly Cloudy
6:00 PM-11 °C-14 °C79 %1004.1 hPa24.1 kmWest (270°)37 km/h51.8 km/hMostly Cloudy
7:00 PM-12.2 °C-16.1 °C60 %1005.4 hPaWest (280°)25.9 km/h
7:00 PM-12 °C-17 °C67 %1005.4 hPa24.1 kmWest (270°)29.6 km/h38.9 km/hMostly Cloudy
7:12 PM-13 °C-17.8 °C24.1 kmWest (270°)35.2 km/hSnowLight Snow Showers
7:40 PM-14 °C-17.8 °C24.1 kmWest (280°)33.3 km/h48.1 km/hPartly Cloudy
8:00 PM-14 °C-18 °C72 %1007.1 hPa24.1 kmWest (270°)40.7 km/h50.1 km/hPartly Cloudy
9:00 PM-16 °C-24 °C51 %1008.5 hPa24.1 kmWest (270°)31.5 km/h40.7 km/hPartly Cloudy
10:00 PM-16.7 °C-23.3 °C42 %1009.5 hPaWest (270°)27.8 km/h
10:00 PM-17 °C-25 °C51 %1009.5 hPa24.1 kmWest (270°)35.2 km/h44.4 km/hPartly Cloudy
11:00 PM-18 °C-27 °C46 %1010.2 hPa24.1 kmWest (270°)22.2 km/h40.7 km/hClear
Hourly data recorded from CYQB, located 0 kilometers away from Quebec City Airport, Quebec




STORIES FROM OUR PARTNERS